Torna al catalogo

COSMOS 663

AttivoMilitarePO
NORAD 7349·PAYLOAD·🇷🇺 Russia

Lanciato Jun 27, 1974 da Plesetsk Cosmodrome

Loading…

Prossimi Passaggi (prossime 24 ore)

TLE

AggiornatoSource: Space-Track

Epoca: Sep 14, 2026, 09:00 UTC

1 07349U 74048A   26257.37569054  .00000052  00000-0  38327-4 0  9991
2 07349  82.9472 108.6005 0025185   4.8498 167.9882 13.75866545620471

Traccia COSMOS 663 in tempo reale con AllMySat

Download on the App Store